"Pseudo-MPEC" for P117MYt

Created 2020 Oct 19 20:07:15 UT using Find_Orb

Click here for an explanation of pseudo-MPECs

 
 Astrometry: 
     P117MYt  C2020 10 14fQNAstrometrywa%i4\#qFkredacted;wpLeikDv`Sw]yZ.=tNI%F51
     P117MYt  C2020 10 14d(nxb*ZQclickmhere1Gsvj?t@forYNq'R$xRG)W1ed'0f;;3M`#F51
     P117MYt  C2020 10 14-%R'8yTa+X_edanvL36;f0(i7x*;+cmgMfV4KiM6-explanationF51

Station data:
(F51) Pan-STARRS 1, Haleakala  (N20.707235 W156.255910)  US/Hawaii.
   Observers N. Primak, A. Schultz, S. Watters, J. Thiel, T. Goggia. Measurer
   PS1 Science Consortium. 1.8-m Ritchey-Chrétien + CCD.

Orbital elements:  P117MYt
   Perihelion 2020 Nov 6.504834 +/- 33.2 TT = 12:06:57 (JD 2459160.004834)
Epoch 2020 Oct 14.0 TT = JDT 2459136.5   Earth MOID: 0.0121   AutoNEOCP
M 341.03780281 +/- 17               (J2000 ecliptic)
n   0.80673604 +/- 0.378            Peri.    6.19859 +/- 70
a   1.14283028 +/- 0.357            Node    38.97911 +/- 60
e   0.1215333 +/- 0.252             Incl.    2.00530 +/- 7
P   1.22/446.23d           H 28.8   G  0.15   U 12.1  SR
q 1.00393825 +/- 0.143    Q 1.28172232 +/- 42.2
From 3 observations 2020 Oct. 14 (29.7 min); mean residual 0".14
Residuals in arcseconds: 
201014 F51  .04-  .13-    201014 F51  .07+  .27+    201014 F51  .04-  .14-    

Ephemerides (geocentric):
Date (UTC) HH   RA              Dec         delta   r     elong  mag " sig PA
---- -- -- --  -------------   -----------  ------ ------ -----  --- ---- ---
2020 10 19 20  03 31 59.023   -08 30 58.26  .01631 1.0094 146.1 21.3  65d 165
2020 10 19 21  03 32 24.760   -08 24 32.12  .01629 1.0094 146.1 21.3  65d 165
2020 10 19 22  03 32 50.527   -08 18 05.01  .01627 1.0094 146.1 21.3  65d 165
2020 10 19 23  03 33 16.323   -08 11 36.93  .01626 1.0093 146.1 21.3  65d 165
2020 10 20 00  03 33 42.148   -08 05 07.90  .01624 1.0093 146.1 21.3  66d 166
2020 10 20 01  03 34 08.001   -07 58 37.90  .01623 1.0093 146.1 21.3  66d 166
2020 10 20 02  03 34 33.884   -07 52 06.96  .01621 1.0093 146.1 21.3  66d 166
2020 10 20 03  03 34 59.794   -07 45 35.07  .01620 1.0092 146.1 21.3  66d 166
2020 10 20 04  03 35 25.734   -07 39 02.24  .01618 1.0092 146.1 21.3  66d 166
2020 10 20 05  03 35 51.701   -07 32 28.47  .01616 1.0092 146.1 21.3  66d 166
2020 10 20 06  03 36 17.697   -07 25 53.77  .01615 1.0092 146.1 21.3  66d 166
2020 10 20 07  03 36 43.720   -07 19 18.15  .01613 1.0091 146.1 21.3  66d 166
2020 10 20 08  03 37 09.772   -07 12 41.60  .01612 1.0091 146.0 21.3  66d 166
2020 10 20 09  03 37 35.851   -07 06 04.13  .01611 1.0091 146.0 21.3  66d 166
2020 10 20 10  03 38 01.957   -06 59 25.76  .01609 1.0091 146.0 21.3  66d 166
2020 10 20 11  03 38 28.091   -06 52 46.47  .01608 1.0090 146.0 21.3  67d 166
2020 10 20 12  03 38 54.253   -06 46 06.29  .01606 1.0090 146.0 21.3  67d 166
2020 10 20 13  03 39 20.441   -06 39 25.21  .01605 1.0090 146.0 21.3  67d 166
2020 10 20 14  03 39 46.657   -06 32 43.25  .01603 1.0089 146.0 21.3  67d 166
2020 10 20 15  03 40 12.899   -06 26 00.40  .01602 1.0089 146.0 21.3  67d 166
2020 10 20 16  03 40 39.168   -06 19 16.67  .01601 1.0089 146.0 21.3  67d 166
2020 10 20 17  03 41 05.464   -06 12 32.07  .01599 1.0089 145.9 21.3  67d 166
2020 10 20 18  03 41 31.786   -06 05 46.60  .01598 1.0088 145.9 21.3  67d 166
2020 10 20 19  03 41 58.134   -05 59 00.27  .01596 1.0088 145.9 21.3  67d 166
2020 10 20 20  03 42 24.508   -05 52 13.09  .01595 1.0088 145.9 21.3  67d 166
2020 10 20 21  03 42 50.908   -05 45 25.06  .01594 1.0088 145.9 21.3  67d 166
2020 10 20 22  03 43 17.334   -05 38 36.19  .01592 1.0087 145.9 21.3  67d 166
2020 10 20 23  03 43 43.786   -05 31 46.48  .01591 1.0087 145.9 21.2  67d 166
2020 10 21 00  03 44 10.263   -05 24 55.94  .01590 1.0087 145.8 21.2  67d 166
2020 10 21 01  03 44 36.765   -05 18 04.58  .01589 1.0087 145.8 21.2  67d 166
2020 10 21 02  03 45 03.292   -05 11 12.40  .01587 1.0086 145.8 21.2  67d 166
2020 10 21 03  03 45 29.844   -05 04 19.42  .01586 1.0086 145.8 21.2  67d 167
2020 10 21 04  03 45 56.422   -04 57 25.63  .01585 1.0086 145.8 21.2  67d 167
2020 10 21 05  03 46 23.023   -04 50 31.04  .01584 1.0086 145.8 21.2  67d 167
2020 10 21 06  03 46 49.650   -04 43 35.67  .01582 1.0085 145.8 21.2  68d 167
2020 10 21 07  03 47 16.300   -04 36 39.51  .01581 1.0085 145.7 21.2  68d 167
2020 10 21 08  03 47 42.975   -04 29 42.57  .01580 1.0085 145.7 21.2  68d 167
2020 10 21 09  03 48 09.674   -04 22 44.87  .01579 1.0085 145.7 21.2  68d 167
2020 10 21 10  03 48 36.396   -04 15 46.41  .01578 1.0085 145.7 21.2  68d 167
2020 10 21 11  03 49 03.142   -04 08 47.19  .01577 1.0084 145.7 21.2  68d 167
2020 10 21 12  03 49 29.912   -04 01 47.22  .01575 1.0084 145.6 21.2  68d 167
2020 10 21 13  03 49 56.704   -03 54 46.51  .01574 1.0084 145.6 21.2  68d 167
2020 10 21 14  03 50 23.520   -03 47 45.07  .01573 1.0084 145.6 21.2  68d 167
2020 10 21 15  03 50 50.359   -03 40 42.91  .01572 1.0083 145.6 21.2  68d 167
2020 10 21 16  03 51 17.221   -03 33 40.02  .01571 1.0083 145.6 21.2  68d 167
2020 10 21 17  03 51 44.105   -03 26 36.43  .01570 1.0083 145.5 21.2  68d 167
2020 10 21 18  03 52 11.012   -03 19 32.14  .01569 1.0083 145.5 21.2  68d 167
2020 10 21 19  03 52 37.940   -03 12 27.15  .01568 1.0082 145.5 21.2  68d 167